This is the latest recevied weather packets stored in our database for station/object IZ5MMH-1. If no packets are shown the sender has not sent any weather packets the latest 10 day(s).
| Time | Temp. | Humidity | Pressure | Rain* | Wind** | Luminosity | Snow |
|---|---|---|---|---|---|---|---|
| 1787531899 | 18.33° C | 57% | 1016.7 hPa | - | - | - | - |
| 1787531300 | 18.33° C | 59% | 1016.7 hPa | - | - | - | - |
| 1787530699 | 18.33° C | 58% | 1016.6 hPa | - | - | - | - |
| 1787530099 | 18.33° C | 57% | 1016.7 hPa | - | - | - | - |
| 1787529499 | 18.89° C | 57% | 1016.8 hPa | - | - | - | - |
| 1787528899 | 18.89° C | 57% | 1016.9 hPa | - | - | - | - |
| 1787528299 | 18.89° C | 60% | 1016.9 hPa | - | - | - | - |
| 1787527700 | 18.89° C | 58% | 1017 hPa | - | - | - | - |
| 1787527099 | 18.89° C | 58% | 1017.1 hPa | - | - | - | - |
| 1787526500 | 18.89° C | 60% | 1017.2 hPa | - | - | - | - |
| 1787525898 | 19.44° C | 63% | 1017.2 hPa | - | - | - | - |
| 1787525299 | 19.44° C | 57% | 1017.3 hPa | - | - | - | - |
| 1787524698 | 19.44° C | 59% | 1017.3 hPa | - | - | - | - |
| 1787524098 | 20° C | 56% | 1017.3 hPa | - | - | - | - |
| 1787523498 | 20° C | 58% | 1017.2 hPa | - | - | - | - |
| 1787522900 | 20° C | 57% | 1017.3 hPa | - | - | - | - |
| 1787522299 | 20° C | 56% | 1017.4 hPa | - | - | - | - |
| 1787521698 | 20.56° C | 56% | 1017.3 hPa | - | - | - | - |
| 1787521098 | 20.56° C | 55% | 1017.4 hPa | - | - | - | - |
| 1787520499 | 20.56° C | 56% | 1017.4 hPa | - | - | - | - |
| 1787519898 | 20.56° C | 58% | 1017.4 hPa | - | - | - | - |
| 1787519298 | 21.11° C | 56% | 1017.3 hPa | - | - | - | - |
| 1787518698 | 21.11° C | 53% | 1017.3 hPa | - | - | - | - |
| 1787518098 | 21.11° C | 54% | 1017.4 hPa | - | - | - | - |
| 1787517498 | 21.11° C | 58% | 1017.6 hPa | - | - | - | - |
* Rain since midnight (hover to see other rain measurements)
** Current wind speed in m/s (hover to see current wind gust speed)